Regional Weather Roundup
Issued by NWS

Home | Current Version | Previous Version | Graphics & Text | Print | Product List | Glossary On
Versions: 1 2 3 4 5 6 7 8 9 10 11 12 13 14 15 16 17 18 19 20 21 22 23 24 25 26 27 28 29 30 31 32 33 34 35 36 37 38 39 40 41 42 43 44 45 46 47 48 49 50
000
ASUS43 KMKX 261759
RWRWI

WISCONSIN REGIONAL WEATHER ROUNDUP
NATIONAL WEATHER SERVICE MILWAUKEE/SULLIVAN WI
100 PM CDT THU APR 26 2018

NOTE: "FAIR" INDICATES FEW OR NO CLOUDS BELOW 12,000 FEET WITH NO
SIGNIFICANT WEATHER AND/OR OBSTRUCTIONS TO VISIBILITY.

WIZ001-002-006>008-014>016-023>028-261900-
NORTHWEST WISCONSIN

CITY           SKY/WX    TMP DP  RH WIND       PRES   REMARKS
SUPERIOR ARPT  FAIR      58  37  46 N17G23    29.84R
ASHLAND        CLOUDY    57  34  41 NW10      29.81R
6HR MIN TEMP:  42; 6HR MAX TEMP:  59;

HAYWARD        FAIR      60  33  36 NW8G18    29.81S
6HR MIN TEMP:  30; 6HR MAX TEMP:  61;

SIREN          FAIR      60  33  36 NW8G17    29.83F
CUMBERLAND     FAIR      55  32  41 W9        29.82F
RICE LAKE      FAIR      60  33  36 W7        29.84S
6HR MIN TEMP:  31; 6HR MAX TEMP:  61;

CHETEK         FAIR      63  34  34 W8G16     29.82S
LADYSMITH      FAIR      62  34  34 W12G17    29.83S
6HR MIN TEMP:  32; 6HR MAX TEMP:  62;

EAU CLAIRE     NOT AVBL
MENOMONIE      FAIR      66  32  28 SW16      29.82F
6HR MIN TEMP:  34; 6HR MAX TEMP:  67;

NEW RICHMOND   FAIR      62  31  31 W14G20    29.84S
OSCEOLA        FAIR      61  34  36 NW13G18   29.87S
$$

WIZ003>005-009-010-017-018-261900-
NORTH CENTRAL WISCONSIN

CITY           SKY/WX    TMP DP  RH WIND       PRES   REMARKS
MANITOWISH WTR FAIR      55  31  39 W10G17    29.79F
ARBOR VITAE    FAIR      59  33  36 W10       29.80F
WOODRUFF       FAIR      59  33  36 W10       29.80F
RHINELANDER    FAIR      60  32  34 SW10      29.81F
6HR MIN TEMP:  36; 6HR MAX TEMP:  60;

EAGLE RIVER    FAIR      58  27  31 W10       29.79F
6HR MIN TEMP:  27; 6HR MAX TEMP:  58;

LAND O LAKES   FAIR      58  28  31 W7        29.80F
6HR MIN TEMP:  27; 6HR MAX TEMP:  58;

PHILLIPS       FAIR      58  33  38 SW9       29.80S
6HR MIN TEMP:  30; 6HR MAX TEMP:  59;

TOMAHAWK       FAIR      57  30  35 SW6       29.82F
MEDFORD        FAIR      57  33  39 SW10      29.82F
MERRILL        FAIR      59  34  39 W12G18    29.83F
$$

WIZ029-030-035-036-043>047-261900-
CENTRAL WISCONSIN

CITY           SKY/WX    TMP DP  RH WIND       PRES   REMARKS
WAUSAU         FAIR      61  31  32 W15G22    29.81F
6HR MIN TEMP:  32; 6HR MAX TEMP:  61;

MOSINEE        MOSUNNY   61  30  31 SW9G18    29.85F
MARSHFIELD     FAIR      62  33  33 W13G18    29.83F
6HR MIN TEMP:  36; 6HR MAX TEMP:  62;

STEVENS POINT  FAIR      58  31  36 SW8       29.85F
WAUPACA        FAIR      64  28  25 SW8G16    29.85F
6HR MIN TEMP:  36; 6HR MAX TEMP:  64;

WAUTOMA        FAIR      63  28  26 SW14G21   29.86F
6HR MIN TEMP:  30; 6HR MAX TEMP:  63;

WISC RAPIDS    FAIR      65  28  24 SW14      29.85F
6HR MIN TEMP:  31; 6HR MAX TEMP:  65;

CAMP DOUGLAS   NOT AVBL
$$

WIZ011>013-019>022-031-037>040-048>050-261900-
NORTHEAST WISCONSIN

CITY           SKY/WX    TMP DP  RH WIND       PRES   REMARKS
ANTIGO         FAIR      56  34  43 SW13      29.83F
SHAWANO        FAIR      63  31  29 SW9       29.84F
6HR MIN TEMP:  33; 6HR MAX TEMP:  63;

OCONTO         FAIR      61  31  32 W12G18    29.84F
STURGEON BAY   FAIR      60  30  32 SW16      29.85F
6HR MIN TEMP:  37; 6HR MAX TEMP:  60;

GREEN BAY      FAIR      60  37  42 S12       29.86F
6HR MIN TEMP:  37; 6HR MAX TEMP:  60;

MANITOWOC      FAIR      60  31  33 SW13      29.88F
6HR MIN TEMP:  34; 6HR MAX TEMP:  61;

APPLETON       MOSUNNY   61  27  27 SW13      29.85F
CLINTONVILLE   FAIR      61  28  28 W10G16    29.85F
6HR MIN TEMP:  33; 6HR MAX TEMP:  61;

OSHKOSH        FAIR      61  33  35 VRB6      29.87F
6HR MIN TEMP:  38; 6HR MAX TEMP:  61;

$$

WIZ032>034-041-042-053>061-261900-
SOUTHWEST WISCONSIN

CITY           SKY/WX    TMP DP  RH WIND       PRES   REMARKS
LA CROSSE      FAIR      69  31  24 W12       29.85F
6HR MIN TEMP:  41; 6HR MAX TEMP:  69;

SPARTA         FAIR      64  31  28 SW13G18   29.87F
VIROQUA        FAIR      62  35  36 W13       29.89F
BOSCOBEL       FAIR      67  33  28 NW9G18    29.89F
6HR MIN TEMP:  34; 6HR MAX TEMP:  67;

PRAIRIE DU CHI FAIR      66  28  24 W9G16     29.89F
PLATTEVILLE    FAIR      62  32  32 W12       29.92F
$$

WIZ056-057-062-063-064-067-068-261900-
SOUTH CENTRAL WISCONSIN

CITY           SKY/WX    TMP DP  RH WIND       PRES   REMARKS
REEDSBURG      FAIR      61  33  35 W9        29.89F
6HR MIN TEMP:  38; 6HR MAX TEMP:  62;

BARABOO/DELLS  FAIR      60  26  26 W7        29.89F
LONE ROCK      NOT AVBL
MINERAL POINT  FAIR      63  30  29 W6        29.91F
MADISON        PTSUNNY   61  32  33 SW9       29.89F
6HR MIN TEMP:  38; 6HR MAX TEMP:  61;

MIDDLETON      FAIR      63  28  26 NW9       29.90F
WATERTOWN      FAIR      61  34  36 SW10      29.90F
MONROE         FAIR      61  30  31 W14       29.92F
JANESVILLE     PTSUNNY   63  30  29 W10       29.92F
$$

WIZ051-052-058>065-066-070>072-261900-
SOUTHEAST WISCONSIN

CITY           SKY/WX    TMP DP  RH WIND       PRES   REMARKS
MILWAUKEE      PTSUNNY   62  30  29 W9        29.91F
6HR MIN TEMP:  38; 6HR MAX TEMP:  63;

WAUKESHA       SUNNY     59  30  33 W9G16     29.92F
MILWAUKEE/TIMM SUNNY     63  27  25 SW12      29.91F
RACINE         FAIR      54  31  41 S15       29.93F
6HR MIN TEMP:  37; 6HR MAX TEMP:  58;

BURLINGTON     FAIR      61  30  31 SW12      29.92F
KENOSHA        FAIR      63  32  31 SW9G17    29.91F
6HR MIN TEMP:  35; 6HR MAX TEMP:  63;

FOND DU LAC    FAIR      60  34  37 SW8G16    29.88F
6HR MIN TEMP:  38; 6HR MAX TEMP:  61; 6HR PCP: TRACE;

SHEBOYGAN      FAIR      62  33  33 W14G21    29.88F
6HR MIN TEMP:  33; 6HR MAX TEMP:  62;

WEST BEND      FAIR      61  32  33 W10G18    29.90F
JUNEAU         FAIR      59  33  37 SW9G17    29.91F
$$

LSZ147-162-261900-
LAKE SUPERIOR

STATION/POSITION TIME  TEMP    WIND        PRES    WAVE
                       AIR SEA DIR/SP/G            HT/PER
                 (UTC) (F)     (DEG/KT/KT) (MB)    (FT/S)
DEVILS ISLAND    1700   41     250/ 14/ 18 1010.2R
SAXON HARBOR     1740          300/  5/ 13 1009.1R
$$

LMZ867-665-643>646-261900-
LAKE MICHIGAN

STATION/POSITION TIME  TEMP    WIND        PRES    WAVE
                       AIR SEA DIR/SP/G            HT/PER
                 (UTC) (F)     (DEG/KT/KT) (MB)    (FT/S)
NORTHPORT PIER   1740   47                 1010.5F
KEWAUNEE LAKESHO 1724   41     160/ 12/ 14 1011.2
SHEBOYGAN LAKESH 1700   41     170/ 19/ 20 1012.9F
PORT WASHINGTON  1740   46     180/  7/ 12 1013.9F
MILWAUKEE LAKESH 1740   42     140/ 16/ 18   N/A
KENOSHA   LAKESH 1700   43                 1014.2
$$

TC  - TEMPERATURE IN CELSIUS
VSB - VISIBILITY IN STATUTE MILES
WCI - WIND CHILL INDEX
HX  - HEAT INDEX




USA.gov is the U.S. government's official web portal to all federal, state and local government web resources and services.